This is the latest recevied weather packets stored in our database for station/object N9VPV. If no packets are shown the sender has not sent any weather packets the latest 1 day(s).
| Time | Temp. | Humidity | Pressure | Rain* | Wind** | Luminosity | Snow |
|---|---|---|---|---|---|---|---|
| 1778030086 | 11.11° C | 62% | 1009.4 hPa | 0 mm | 0 m/s | 0 W/m² | - |
| 1778029186 | 11.67° C | 62% | 1009.3 hPa | 0 mm | 0 m/s | 0 W/m² | - |
| 1778028278 | 11.67° C | 59% | 1009.2 hPa | 0 mm | 0 m/s | 0 W/m² | - |
| 1778027359 | 11.67° C | 58% | 1009 hPa | 0 mm | 0 m/s | 0 W/m² | - |
| 1778026455 | 11.67° C | 56% | 1008.9 hPa | 0 mm | 0 m/s | 0 W/m² | - |
| 1778025545 | 12.22° C | 55% | 1009.2 hPa | 0 mm | 0 m/s | 0 W/m² | - |
| 1778024642 | 12.22° C | 53% | 1009 hPa | 0 mm | 0 m/s | 0 W/m² | - |
| 1778023743 | 12.22° C | 52% | 1008.9 hPa | 0 mm | 0 m/s | 0 W/m² | - |
| 1778022840 | 12.22° C | 53% | 1009 hPa | 0 mm | 0.45 m/s, 22° | 0 W/m² | - |
| 1778021936 | 12.78° C | 53% | 1008.9 hPa | 0 mm | 0.45 m/s, 355° | 0 W/m² | - |
| 1778021034 | 12.78° C | 50% | 1009 hPa | 0 mm | 0.89 m/s, 300° | 0 W/m² | - |
| 1778020134 | 12.78° C | 50% | 1009.2 hPa | 0 mm | 0.45 m/s, 315° | 0 W/m² | - |
| 1778019232 | 12.78° C | 53% | 1009.4 hPa | 0 mm | 0.45 m/s, 314° | 0 W/m² | - |
| 1778018327 | 12.78° C | 54% | 1009.4 hPa | 0 mm | 0.45 m/s, 9° | 0 W/m² | - |
| 1778017427 | 12.78° C | 53% | 1009.3 hPa | 0 mm | 0.45 m/s, 292° | 0 W/m² | - |
| 1778016515 | 12.78° C | 52% | 1009.5 hPa | 0 mm | 0.45 m/s, 248° | 0 W/m² | - |
| 1778015599 | 13.33° C | 51% | 1009.7 hPa | 0 mm | 0.45 m/s, 177° | 0 W/m² | - |
| 1778014699 | 13.33° C | 50% | 1009.4 hPa | 0 mm | 0.45 m/s, 0° | 0 W/m² | - |
| 1778013797 | 13.33° C | 49% | 1009.6 hPa | 0 mm | 0.45 m/s, 316° | 9 W/m² | - |
| 1778012894 | 13.33° C | 52% | 1009.7 hPa | 0 mm | 0.45 m/s, 321° | 47 W/m² | - |
| 1778011992 | 12.78° C | 50% | 1010.1 hPa | 0 mm | 0.45 m/s, 314° | 0 W/m² | - |
| 1778011090 | 13.33° C | 50% | 1010.4 hPa | 0 mm | 0.89 m/s, 325° | 26 W/m² | - |
| 1778010189 | 12.78° C | 52% | 1010.4 hPa | 0 mm | 0.45 m/s, 15° | 74 W/m² | - |
| 1778009288 | 12.22° C | 52% | 1010.5 hPa | 0 mm | 0.45 m/s, 336° | 0 W/m² | - |
| 1778008387 | 12.22° C | 53% | 1010.6 hPa | 0 mm | 0.45 m/s, 311° | 12 W/m² | - |
* Rain latest hour (hover to see other rain measurements)
** Current wind speed in m/s (hover to see current wind gust speed)